FW6330 Weather Reports


Display with metric or nautical units.
time (UTC)temp
F
wind
direction
speed
MPH
gust
MPH
rain 1hr
in
rain 24hr
in
rain mn
in
humidity
%
barometer
mb
20260902210043 55 320 0.0 8.0 0.00 0.00 0.00 56 1019.0
20260902204542 54 44 1.0 3.0 0.00 0.00 0.00 59 1019.0
20260902203042 54 314 1.0 4.0 0.00 0.00 0.00 60 1019.1
20260902201546 53 205 0.0 7.0 0.00 0.00 0.00 62 1019.2
20260902200040 54 147 0.0 3.0 0.00 0.00 0.00 60 1019.1
20260902194538 53 91 1.0 4.0 0.00 0.00 0.00 62 1019.1
20260902193038 54 150 2.0 8.0 0.00 0.00 0.00 58 1019.0
20260902191543 53 238 0.0 6.0 0.00 0.00 0.00 58 1018.9
20260902190033 53 158 0.0 4.0 0.00 0.00 0.00 58 1018.7
20260902184539 52 217 1.0 6.0 0.00 0.00 0.00 58 1018.8
20260902183030 52 60 0.0 5.0 0.00 0.00 0.00 58 1018.9
20260902181526 51 141 1.0 7.0 0.00 0.00 0.00 60 1018.7
20260902180028 50 277 0.0 5.0 0.00 0.00 0.00 62 1018.6
20260902174522 50 117 0.0 3.0 0.00 0.00 0.00 62 1018.4
20260902173136 50 114 0.0 6.0 0.00 0.00 0.00 62 1018.2
20260902171524 50 225 0.0 2.0 0.00 0.00 0.00 61 1018.0
20260902170016 51 25 0.0 3.0 0.00 0.00 0.00 64 1017.9
20260902164514 50 1 1.0 7.0 0.00 0.00 0.00 62 1017.6
20260902163010 0 0.0 0.0 0.00 0.00 0.00 1017.4
20260902161509 0 0.0 0.0 0.00 0.00 0.00 1017.3
20260902160004 0 0.0 0.0 0.00 0.00 0.00 1017.3
20260902154557 0 0.0 0.0 0.00 0.00 0.00 1017.4
20260902153053 0 0.0 0.0 0.00 0.00 0.00 1017.5
20260902151549 0 0.0 0.0 0.00 0.00 0.00 1017.6
20260902150045 0 0.0 0.0 0.00 0.00 0.00 1017.6
20260902144540 0 0.0 0.0 0.00 0.00 0.00 1017.6
20260902143038 0 0.0 0.0 0.00 0.00 0.00 1017.3
20260902141531 0 0.0 0.0 0.00 0.00 0.00 1017.2
20260902140028 35 172 0.0 0.0 0.00 0.00 0.00 92 1017.3
20260902134526 34 334 0.0 0.0 0.00 0.00 0.00 92 1017.0
20260902133032 34 357 0.0 0.0 0.00 0.00 0.00 91 1017.1
20260902131524 34 307 0.0 0.0 0.00 0.00 0.00 91 1017.0
20260902130022 34 72 0.0 0.0 0.00 0.00 0.00 91 1016.7
20260902124525 34 160 0.0 0.0 0.00 0.00 0.00 90 1016.7
20260902123022 35 169 0.0 0.0 0.00 0.00 0.00 90 1016.5
20260902121521 35 217 0.0 0.0 0.00 0.00 0.00 90 1016.6
20260902120023 34 72 0.0 0.0 0.00 0.00 0.00 90 1016.7
20260902114533 34 59 0.0 0.0 0.00 0.00 0.00 90 1016.6
20260902113017 34 45 0.0 0.0 0.00 0.00 0.00 90 1016.7
20260902111517 34 132 0.0 0.0 0.00 0.00 0.00 89 1016.6
20260902110017 34 175 0.0 0.0 0.00 0.00 0.00 89 1016.6
20260902104519 34 338 0.0 0.0 0.00 0.00 0.00 89 1016.4
20260902103012 35 188 0.0 0.0 0.00 0.00 0.00 88 1016.2
20260902101512 35 46 0.0 0.0 0.00 0.00 0.00 88 1016.0
20260902100010 36 41 0.0 0.0 0.00 0.00 0.00 88 1016.1
20260902094610 36 3 0.0 0.0 0.00 0.00 0.00 87 1016.3
20260902093008 36 3 0.0 0.0 0.00 0.00 0.00 86 1016.3
20260902091507 36 225 0.0 0.0 0.00 0.00 0.00 87 1016.6
20260902090010 36 198 0.0 0.0 0.00 0.00 0.00 87 1016.4
20260902084506 36 58 0.0 0.0 0.00 0.00 0.00 87 1016.4
20260902083006 36 289 0.0 0.0 0.00 0.00 0.00 87 1016.5
20260902081504 36 75 0.0 0.0 0.00 0.00 0.00 87 1016.5
20260902080002 36 81 0.0 0.0 0.00 0.00 0.00 87 1016.3
20260902074600 36 84 0.0 0.0 0.00 0.00 0.00 86 1016.0
20260902073058 37 184 0.0 0.0 0.00 0.00 0.00 86 1016.1
20260902071555 38 307 0.0 0.0 0.00 0.00 0.00 86 1016.1
20260902070053 39 13 0.0 0.0 0.00 0.00 0.00 86 1015.8
20260902064550 39 201 0.0 0.0 0.00 0.00 0.00 85 1015.8
20260902063101 39 107 0.0 0.0 0.00 0.00 0.00 86 1015.5
20260902061611 39 193 0.0 0.0 0.00 0.00 0.00 87 1015.4
20260902060052 39 171 0.0 0.0 0.00 0.00 0.00 89 1015.3
20260902054545 38 148 0.0 0.0 0.00 0.00 0.00 89 1015.1
20260902053043 39 228 0.0 0.0 0.00 0.00 0.00 89 1015.1
20260902051540 39 270 0.0 0.0 0.00 0.00 0.00 87 1015.0
20260902050040 40 28 0.0 0.0 0.00 0.00 0.00 87 1014.8
20260902044539 40 279 0.0 0.0 0.00 0.00 0.00 85 1014.9
20260902043040 40 34 0.0 0.0 0.00 0.00 0.00 85 1014.7
20260902041547 41 146 0.0 0.0 0.00 0.00 0.00 83 1014.5
20260902040034 42 254 0.0 0.0 0.00 0.00 0.00 83 1014.3
20260902034532 43 165 0.0 0.0 0.00 0.00 0.00 81 1014.2
20260902033128 43 86 0.0 1.0 0.00 0.00 0.00 80 1014.0
20260902031526 44 217 0.0 1.0 0.00 0.00 0.00 78 1013.6
20260902030024 45 182 0.0 1.0 0.00 0.00 0.00 76 1013.4
20260902024523 46 77 0.0 1.0 0.00 0.00 0.00 74 1013.2
20260902023023 46 308 0.0 1.0 0.00 0.00 0.00 72 1013.2
20260902021522 47 45 0.0 1.0 0.00 0.00 0.00 70 1013.0
20260902020041 48 346 0.0 1.0 0.00 0.00 0.00 67 1012.9
20260902014521 49 177 0.0 2.0 0.00 0.00 0.00 65 1012.8
20260902013021 51 293 0.0 3.0 0.00 0.00 0.00 62 1012.7
20260902011520 51 4 0.0 3.0 0.00 0.00 0.00 62 1012.7
20260902010028 52 184 0.0 3.0 0.00 0.00 0.00 60 1012.7
20260902004519 53 332 0.0 5.0 0.00 0.00 0.00 58 1012.6
20260902003018 54 252 0.0 3.0 0.00 0.00 0.00 58 1012.6
20260902001519 55 285 0.0 3.0 0.00 0.00 0.00 57 1012.5
20260902000026 54 58 0.0 3.0 0.00 0.00 0.00 59 1012.4
20260901234518 54 318 0.0 4.0 0.00 0.00 0.00 59 1012.5
20260901233017 55 354 0.0 5.0 0.00 0.00 0.00 57 1012.6
20260901231519 55 207 0.0 8.0 0.00 0.00 0.00 55 1012.5
20260901230014 56 183 1.0 4.0 0.00 0.00 0.00 52 1012.7
20260901224519 57 264 0.0 4.0 0.00 0.00 0.00 53 1012.6
20260901223014 57 134 0.0 4.0 0.00 0.00 0.00 52 1012.6
20260901221521 57 111 0.0 4.0 0.00 0.00 0.00 50 1012.7
20260901220016 57 180 1.0 8.0 0.00 0.00 0.00 51 1012.7
20260901214511 58 182 1.0 8.0 0.00 0.00 0.00 49 1012.7
20260901213012 58 167 0.0 3.0 0.00 0.00 0.00 48 1012.7
20260901211511 59 84 0.0 6.0 0.00 0.00 0.00 45 1012.6